DELTA 1 DEB, 2154

Orbit data source: Space-Track

DELTA 1 DEB, 2154 is space debris in SSO originally from a launch on Thu, 03 Feb 1966 UTC launched from the Air Force Eastern Test Range (AFETR). Debris objects in space refer to the collection of defunct objects orbiting the Earth. Examples of debris include non-operational satellites, rocket bodies, and fragments generated from explosions, collisions, or faulty payload assembly.

Loading next visibility...
DELTA 1 DEB details
Identifier
2154, 1966-008E
Orbit
SSO
Last TLE update1 day ago
Origin
Flag of USGSFC (US)
ManufacturerUnknown
MissionSpacecraft
Bus & MotorUnknown
MassUnknown
Launch date (UTC)
1966-02-03 (59 years ago)
Launch vehicleUnknown
Launch site
Air Force Eastern Test Range (AFETR)
Object type
Payload
Rocket body
Debris
Shape & HBRUnknown
Radar Cross SectionSmall (<0.1 m²)

Expand to show TLE details & history

TLE from 1 day ago
0 DELTA 1 DEB
1 02154U 66008E   24355.62224171  .00002694  00000-0  45459-3 0  9997
2 02154  97.8164 120.8282 0046979 248.0060 111.6151 14.69522970 99118
Epoch: 2024-12-20T14:56Z
Definitive object data (Epoch: 2024-12-20T14:56:01.683Z)
Latitude-0.00007°
Longitude167.13609°
Altitude677.922 km
Speed7.511 km/s
True Right ascension08h 03m 18s
True Declination0° 00' 00"
Sunlit
Object was in full shadow at TLE epoch
Visualization TLE readout
Latitude-71.99288°
Longitude-36.74154°
Altitude656.505 km
Speed7.546 km/s
Apparent Right ascension00h 14m 32s
Apparent Declination-67° 11' 55"
Sunlit
Object is in daylight
Visualization observer readout
Local Sidereal Time14:00:05
Azimuth160.423° S
Elevation-59.07°
Doppler factor1
Orbital elements
Apogee altitude692.705 km
Perigee altitude626.58 km
Semi-major axis7,037.779 km
Eccentricity0.0046979
Inclination97.8164°
RAAN120.8282°
Arg. of periapsis248.006°
True anomaly112.1145°
Mean anomaly111.6151°
Eccentric anomaly111.86491°
Mean motion3.67612 °/min
BSTAR0.00045459
Orbital period97.93 mins
Loading maneuver chart data...
Loading historical data...
Loading historical data...
Loading historical data...
Loading historical data...
Loading historical data...
Loading historical data...
Loading historical data...

DELTA 1 DEB Visibility forecast

Observer location: undefined°, undefined

Span
Click to sort rows by Start time (UTC) header in descending order
Start Az.
Max El. time (UTC)
Max El. Az.
Max El.
End time (UTC)
End Az.
7 mins2024-12-21 20:55:52.483Z31.341° NE2024-12-21 20:59:52.483Z110.72° ESE32.557°2024-12-21 21:02:52.483Z163.114° S
4 mins2024-12-21 22:34:52.483Z315.872° NNW2024-12-21 22:35:52.483Z299.208° NW18.386°2024-12-21 22:38:52.483Z253.739° W
7 mins2024-12-22 07:55:52.483Z126.984° SE2024-12-22 07:58:52.483Z71.337° E29.787°2024-12-22 08:02:52.483Z7.335° NNE
5 mins2024-12-22 09:33:52.483Z231.057° WSW2024-12-22 09:35:52.483Z265.151° W21.178°2024-12-22 09:38:52.483Z311.482° NW
|